Weather History for KBKD - November, 2012

Change the Weather History Date:

Thursday, November 8, 2012

  Actual Average (KABI) Record (KABI)
Temperature  
Mean Temperature 78 °F 58 °F  
Max Temperature 86 °F 70 °F 92 °F (1980)
Min Temperature 71 °F 46 °F 24 °F (1991)
Degree Days  
Heating Degree Days 0 8  
Month to date heating degree days 57  
Since 1 July heating degree days 161  
Cooling Degree Days 14 1  
Month to date cooling degree days 10  
Year to date cooling degree days 2399  
Growing Degree Days 28 (Base 50)    
Moisture  
Dew Point 50 °F    
Average Humidity 38    
Maximum Humidity 46    
Minimum Humidity 29    
Precipitation  
Precipitation 0.00 in 0.05 in 1.70 in (1965)
Month to date precipitation 0.48  
Year to date precipitation 22.66  
Sea Level Pressure  
Sea Level Pressure 29.94 in    
Wind  
Wind Speed 18 mph (South)    
Max Wind Speed 25 mph    
Max Gust Speed 31 mph    
Visibility 10 miles    
Events      
T = Trace of Precipitation, MM = Missing Value Source: NWS Daily Summary

Daily Weather History Graph

Daily Weather History Graph

Search for Another Location

Airport or City:

Trip Planner

Search our weather history database for the weather conditions in past years. The results will help you decide how hot, cold, wet, or windy it might be!

Date:

Astronomy

Nov. 08, 2012 Rise Set
Actual Time 6:59 AM CST 5:38 PM CST
Civil Twilight 6:33 AM CST 6:04 PM CST
Nautical Twilight 6:04 AM CST 6:33 PM CST
Astronomical Twilight 5:35 AM CST 7:02 PM CST
Moon 1:15 AM CST (11/8) 2:03 PM CST (11/8)
Length of Visible Light 11h 30m
Length of Day
10h 38m
Waning Crescent, 32% of the Moon is Illuminated
Nov 8
Waning Crescent
Nov 13
New
Nov 20
First Quarter
Nov 28
Full
Dec 6
Last Quarter

Hourly Weather History & Observations

Time (CST) Temp. Heat Index Dew Point Humidity Pressure Visibility Wind Dir Wind Speed Gust Speed Precip Events Conditions
10:15 AM 75.2 °F - 51.8 °F 44% 30.02 in - SSW 19.6 mph - N/A   Unknown
10:35 AM 77.0 °F - 51.8 °F 41% 30.02 in 10.0 mi SSW 17.3 mph 28.8 mph N/A   Clear
10:55 AM 78.8 °F - 51.8 °F 39% 30.01 in 10.0 mi SSW 20.7 mph 27.6 mph N/A   Clear
11:15 AM 78.8 °F - 51.8 °F 39% 30.00 in 10.0 mi SSW 24.2 mph - N/A   Clear
11:35 AM 80.6 °F - 50.0 °F 34% 29.99 in 10.0 mi SSW 19.6 mph 28.8 mph N/A   Clear
11:55 AM 80.6 °F - 50.0 °F 34% 29.98 in 10.0 mi SSW 25.3 mph 31.1 mph N/A   Clear
12:15 PM 82.4 °F - 50.0 °F 32% 29.97 in 10.0 mi SSW 16.1 mph 28.8 mph N/A   Clear
12:55 PM 80.6 °F - 50.0 °F 34% 29.95 in 10.0 mi SSW 21.9 mph 28.8 mph N/A   Clear
1:15 PM 82.4 °F - 50.0 °F 32% 29.94 in 10.0 mi SSW 18.4 mph 27.6 mph N/A   Clear
1:35 PM 84.2 °F - 50.0 °F 30% 29.93 in 10.0 mi SW 16.1 mph 24.2 mph N/A   Clear
1:55 PM 84.2 °F - 51.8 °F 33% 29.92 in 10.0 mi South 15.0 mph 25.3 mph N/A   Clear
2:15 PM 86.0 °F - 50.0 °F 29% 29.92 in 10.0 mi SSW 18.4 mph 27.6 mph N/A   Clear
2:35 PM 82.4 °F - 51.8 °F 35% 29.92 in 10.0 mi SSW 17.3 mph 26.5 mph N/A   Clear
2:55 PM 82.4 °F - 51.8 °F 35% 29.91 in 10.0 mi South 16.1 mph 24.2 mph N/A   Clear
3:15 PM 82.4 °F - 51.8 °F 35% 29.91 in 10.0 mi SSW 15.0 mph 21.9 mph N/A   Clear
3:35 PM 82.4 °F 81.4 °F 53.6 °F 37% 29.91 in 10.0 mi SSW 16.1 mph 21.9 mph N/A   Clear
3:55 PM 82.4 °F 81.4 °F 53.6 °F 37% 29.91 in 10.0 mi South 13.8 mph - N/A   Clear
4:15 PM 82.4 °F 81.4 °F 53.6 °F 37% 29.90 in 10.0 mi South 9.2 mph 17.3 mph N/A   Clear
4:35 PM 84.2 °F 82.8 °F 53.6 °F 35% 29.90 in 10.0 mi South 18.4 mph 25.3 mph N/A   Clear
4:55 PM 82.4 °F - 51.8 °F 35% 29.90 in 10.0 mi South 19.6 mph 27.6 mph N/A   Clear
5:15 PM 82.4 °F - 51.8 °F 35% 29.90 in 10.0 mi South 12.7 mph 21.9 mph N/A   Clear
5:35 PM 80.6 °F - 51.8 °F 37% 29.90 in 10.0 mi South 11.5 mph 20.7 mph N/A   Clear
5:55 PM 80.6 °F - 51.8 °F 37% 29.91 in 10.0 mi South 12.7 mph 20.7 mph N/A   Clear
6:15 PM 78.8 °F - 51.8 °F 39% 29.91 in 10.0 mi South 11.5 mph 16.1 mph N/A   Clear
6:35 PM 78.8 °F - 51.8 °F 39% 29.91 in 10.0 mi South 12.7 mph 20.7 mph N/A   Clear
6:55 PM 78.8 °F - 51.8 °F 39% 29.91 in 10.0 mi South 13.8 mph 19.6 mph N/A   Clear
7:15 PM 77.0 °F - 50.0 °F 39% 29.92 in 10.0 mi South 15.0 mph 21.9 mph N/A   Clear
7:35 PM 77.0 °F - 50.0 °F 39% 29.92 in 10.0 mi South 17.3 mph 28.8 mph N/A   Clear
7:55 PM 77.0 °F - 50.0 °F 39% 29.93 in 10.0 mi South 19.6 mph 26.5 mph N/A   Clear
8:15 PM 75.2 °F - 50.0 °F 41% 29.93 in 10.0 mi South 18.4 mph 27.6 mph N/A   Clear
8:35 PM 75.2 °F - 50.0 °F 41% 29.93 in 10.0 mi South 18.4 mph 25.3 mph N/A   Clear
8:55 PM 73.4 °F - 50.0 °F 44% 29.93 in 10.0 mi South 18.4 mph 24.2 mph N/A   Clear
9:15 PM 73.4 °F - 50.0 °F 44% 29.93 in 10.0 mi South 17.3 mph 25.3 mph N/A   Clear
9:35 PM 73.4 °F - 48.2 °F 41% 29.94 in 10.0 mi South 17.3 mph 27.6 mph N/A   Clear
9:55 PM 73.4 °F - 46.4 °F 38% 29.94 in 10.0 mi South 13.8 mph - N/A   Clear
10:15 PM 73.4 °F - 46.4 °F 38% 29.95 in 10.0 mi South 18.4 mph 23.0 mph N/A   Clear
10:35 PM 73.4 °F - 46.4 °F 38% 29.95 in 10.0 mi South 16.1 mph 24.2 mph N/A   Clear
10:55 PM 73.4 °F - 46.4 °F 38% 29.95 in 10.0 mi South 15.0 mph 25.3 mph N/A   Clear
11:15 PM 71.6 °F - 46.4 °F 41% 29.96 in 10.0 mi South 17.3 mph 24.2 mph N/A   Clear
11:35 PM 71.6 °F - 48.2 °F 43% 29.95 in 10.0 mi South 17.3 mph 25.3 mph N/A   Clear
11:55 PM 71.6 °F - 50.0 °F 46% 29.95 in 10.0 mi South 18.4 mph 25.3 mph N/A   Clear